Regional Weather Roundup
Issued by NWS Green Bay, WI

Home | Current Version | Previous Version | Text Only | Print | Product List | Glossary On
Versions: 1 2 3 4 5 6 7 8 9 10 11 12 13 14 15 16 17 18 19 20 21 22 23 24 25 26 27 28 29 30 31 32 33 34 35 36 37 38 39 40 41 42 43 44 45 46 47 48 49 50
000
ASUS43 KGRB 290200
RWRGRB

NORTH-CENTRAL AND NORTHEAST WISCONSIN REGIONAL WEATHER ROUNDUP
NATIONAL WEATHER SERVICE GREEN BAY WI
900 PM CDT TUE JUL 28 2015

WIZ005-009-010>012-018-019-290300-
NORTH CENTRAL WISCONSIN

CITY           SKY/WX    TMP DP  RH WIND       PRES   REMARKS
IRONWOOD       MOCLDY    79  70  73 S9G17     29.80S
MANITOWISH WTR NOT AVBL
ARBOR VITAE    NOT AVBL
EAGLE RIVER    NOT AVBL
LAND O LAKES   NOT AVBL
RHINELANDER    MOCLDY    77  68  73 S8        29.91S
PHILLIPS       CLOUDY    76  70  81 S7        29.87S
ANTIGO         NOT AVBL
TOMAHAWK       NOT AVBL
MERRILL        NOT AVBL
$$

WIZ013-073-290300-
NORTHEAST WISCONSIN

CITY           SKY/WX    TMP DP  RH WIND       PRES   REMARKS
IRON MOUNTAIN  CLEAR     73  62  68 SE6       29.90R
MARINETTE      CLEAR     75  63  64 S6        29.90S
$$

WIZ017-030-035>037-045-290300-
CENTRAL WISCONSIN

CITY           SKY/WX    TMP DP  RH WIND       PRES   REMARKS
MEDFORD        NOT AVBL
WAUSAU         MOCLDY    78  70  76 S6        29.88S
MOSINEE        PTCLDY    75  72  88 SE6       29.91R
MARSHFIELD     MOCLDY    77  69  76 S9        29.89F
WISC RAPIDS    MOCLDY    76  68  76 SW6       29.90F
STEVENS POINT  NOT AVBL
WAUPACA        NOT AVBL
SHAWANO        NOT AVBL
CLINTONVILLE   MOCLDY    77  66  69 SE5       29.89S
$$

WIZ038-039-048-051-290300-
FOX VALLEY

CITY           SKY/WX    TMP DP  RH WIND       PRES   REMARKS
NWS GREEN BAY  PTCLDY    76  67  73 S6        29.91R
APPLETON       MOCLDY    79  64  61 S8        29.91S
OSHKOSH        PTCLDY    75  68  78 S7        29.91R
FOND DU LAC    PTCLDY    76  70  82 S6        29.92R
$$

WIZ022-050-052-290300-
EAST CENTRAL WISCONSIN

CITY           SKY/WX    TMP DP  RH WIND       PRES   REMARKS
STURGEON BAY   CLEAR     73  63  68 S8        29.94S
MANITOWOC      NOT AVBL
SHEBOYGAN      CLEAR     73  66  78 S3        29.93R
$$

LMZ563-521-522-541>543-290300-
LAKESHORE

STATION/POSITION TIME  TEMP    WIND        PRES    VSBY  WAVE
                       AIR SEA DIR/SP/G                  HT/PER
                 (UTC) (F)     (DEG/KT/KT) (MB)    (MI)  (FT/S)
SHEBOYGAN LKSHOR 0100   71     170/  6/  7 1013.1F
KEWAUNEE LKSHORE 0100   68     180/  7/  8 1012.3F
NORTHPORT PIER   0100   75     150/  5/ 12 1012.5F
N MID LAKE BUOY  0050   74 71  170/ 10/ 12 1012.9R         0
S GREEN BAY BUOY 0100   79 76  160/ 14/ 16 1013.5F
CHAMBERS ISLAND  0100   78     150/  4/  9 1011.9F
MENOMINEE LKSHOR 0100   77     180/  6/ 11 1013.0F
$$


USA.gov is the U.S. government's official web portal to all federal, state and local government web resources and services.